Regional Weather Roundup
Issued by NWS Glasgow, MT

Home | Current Version | Previous Version | Text Only | Print | Product List | Glossary On
Versions: 1 2 3 4 5 6 7 8 9 10 11 12 13 14 15 16 17 18 19 20 21 22 23 24 25 26 27
000
ASUS45 KGGW 280815
RWRGGW
HOURLY REGIONAL WEATHER ROUNDUP FOR NORTHEAST MONTANA
NATIONAL WEATHER SERVICE GLASGOW MONTANA
200 AM MDT TUE MAR 28 2017

NOTE: "FAIR" INDICATES FEW OR NO CLOUDS BELOW 12,000 FEET WITH NO
SIGNIFICANT WEATHER AND/OR OBSTRUCTIONS TO VISISBILITY.

NORTHEAST MONTANA


CITY           SKY/WX    TMP DP  RH WIND       PRES   REMARKS
GLASGOW        CLOUDY    37  33  85 E9        29.97R
PLENTYWOOD       N/A     36  34  92 E15G23      N/A
WOLF POINT     CLEAR     36  34  92 E7        29.99S
JORDAN           N/A     34  31  88 W3        29.95S
WINNETT          N/A     46  32  58 W5G17       N/A
SIDNEY         CLOUDY    38  36  92 NE7       29.98S
GLENDIVE       MOCLDY    42  38  85 E7        29.95S
MALTA            N/A     36  35  96 SW2         N/A
SCOBEY           N/A     37  28  70 NE10G17   29.97S

FORT PECK REPORTS


CITY           SKY/WX    TMP DP  RH WIND       PRES   REMARKS
FORT PECK        N/A     39  38  96 NE13        N/A
THE PINES        N/A     40  35  83 CALM        N/A

SOUTHEAST MONTANA


CITY           SKY/WX    TMP DP  RH WIND       PRES   REMARKS
BILLINGS       LGT RAIN  43  40  89 NW10      30.02R
MILES CITY     CLOUDY    44  36  73 NE8       29.93R
BAKER          CLEAR     41  34  76 S14       29.96R
LIVINGSTON     CLOUDY    39  32  76 W14       30.06S

CENTRAL MONTANA


CITY           SKY/WX    TMP DP  RH WIND       PRES   REMARKS
HAVRE          CLOUDY    37  34  89 S13       30.00F
LEWISTOWN      CLOUDY    41  33  73 CALM      30.04R
GREAT FALLS    CLOUDY    32  27  81 SW12      30.04S
CUT BANK       CLEAR     35  24  64 W16       30.00R
HELENA         CLEAR     38  26  62 W5        30.10R
BUTTE          PTCLDY    30  24  78 N5        30.12R
BOZEMAN        CLOUDY    38  29  70 W6        30.09S

WESTERN MONTANA


CITY           SKY/WX    TMP DP  RH WIND       PRES   REMARKS
MISSOULA       CLOUDY    35  32  88 S7        30.19R
KALISPELL      NOT AVBL

NORTH DAKOTA


CITY           SKY/WX    TMP DP  RH WIND       PRES   REMARKS
WILLISTON      MOCLDY    38  35  89 E7        30.01S
DICKINSON      CLEAR     34  30  85 S12       29.95F
MINOT          CLOUDY    35  34  96 NE12      30.07F FOG
BISMARCK       CLEAR     35  32  88 NE8       30.03S

SOUTHERN SASKATCHEWAN


CITY           SKY/WX    TMP DP  RH WIND       PRES   REMARKS
REGINA         CLEAR     34  32  93 E13       30.07R
ESTEVAN        CLOUDY    34  32  93 E14       30.06F
SWIFT CURRENT  CLOUDY    37  34  87 SW7       29.99R





USA.gov is the U.S. government's official web portal to all federal, state and local government web resources and services.